Showing default

BRO-1, 44495

Orbit data source: Space-Track

BRO-1, 44495 is a payload satellite owned by Unseen Labs (FR) in LEO that was launched on Mon, 19 Aug 2019 UTC via an ELECTRON launch vehicle from the Rocket Lab Launch Complex (RLLC). Payload-class satellites include a variety of spacecraft equipped with specific instruments for various scientific and technological missions. These include communications satellites like Starlink; space stations such as the ISS; scientific satellites like the Hubble; Earth observation satellites from companies like Planet Labs, Umbra, and HawkEye 360; GPS; miniature CubeSats for education and research; and military/defense satellites.

Loading next visibility...
Identifier
44495, 2019-054A
Orbit
LEO
Country
Flag of FRFR
Related business
Manufacturer
GOMSpace
Mission
Operational Commercial Sigint
Bus & Motor
CUBESAT 6U, Unknown motor
Mass
10 kg wet, ~10 kg dry
Launch date (UTC)
2019-08-19 (6 years ago)
Launch vehicle
ELECTRON
Launch site
Rocket Lab Launch Complex (RLLC)
Object type
Payload
Rocket body
Debris
Shape & HBR
Box, 0.1 m
Radar Cross Section
0.080 m², Small (<0.1 m²)

Expand to show TLE details & history
Last TLE update: 7 hours ago

TLE from 7 hours ago
0 BRO-1
1 44495U 19054A   25355.60547374  .00038264  00000-0  53657-3 0  9993
2 44495  45.0026 241.5404 0007437 174.8487 185.2484 15.56130491351843
Epoch: 2025-12-21T14:31Z
TLE epoch observation values (Epoch: 2025-12-21T14:31:52.931Z)
Latitude
-0.00005°
Longitude
-66.84572°
Altitude
403.886 km
Speed
7.667 km/s
True Right ascension
16h 06m 09s
True Declination
0° 00' 00"
Sunlit
Object was in daylight at epoch
Visualization orbit readout
Latitude
Unknown
Longitude
Unknown
Altitude
Unknown
Speed
Unknown
Apparent Right ascension
Unknown
Apparent Declination
Unknown
Sunlit
N/A
Visualization observer readout
Local Sidereal Time
20:31:19
Azimuth
Unknown
Elevation
Unknown
Doppler factor
Unknown
Orbital elements
Apogee altitude
405.538 km
Perigee altitude
395.456 km
Semi-major axis
6,778.634 km
Eccentricity
0.00074
Inclination
45.0026°
RAAN
241.5404°
Arg. of periapsis
174.8487°
True anomaly
185.24061°
Mean anomaly
185.2484°
Eccentric anomaly
185.24451°
Mean motion
3.88893 °/min
Orbital period
92.57 mins
BSTAR
0.00053657
Loading maneuver chart data...
Computing Atmospheric mass density...
Loading historical data...
Loading historical data...
Loading historical data...
Loading historical data...
Loading historical data...
Loading historical data...
Loading historical data...

Documentation

Showing up to 5 results
|